Weather History for Durango, Mexico

Change the Weather History Date:

Thursday, April 3, 2014

  Actual Average Record
Temperature  
Mean Temperature 66 °F -  
Max Temperature 84 °F 81 °F 89 °F (2008)
Min Temperature 49 °F 46 °F 32 °F (1998)
Cooling Degree Days 2    
Growing Degree Days 16 (Base 50)    
Moisture  
Dew Point 24 °F    
Average Humidity 19    
Maximum Humidity 57    
Minimum Humidity 8    
Precipitation  
Precipitation 0.00 in - - ()
Sea Level Pressure  
Sea Level Pressure 29.95 in    
Wind  
Wind Speed 10 mph ()    
Max Wind Speed 30 mph    
Max Gust Speed -    
Visibility 12.5 miles    
Events      
Averages and records for this station are not official NWS values.
T = Trace of Precipitation, MM = Missing Value Source: Averaged Metar Reports

Daily Weather History Graph

Daily Weather History Graph

Search for Another Location

Airport:

Trip Planner

Search our weather history database for the weather conditions in past years. The results will help you decide how hot, cold, wet, or windy it might be!

Date:

Astronomy

Apr. 03, 2014 Rise Set
Actual Time 6:48 AM CST 7:14 PM CST
Civil Twilight 6:25 AM CST 7:37 PM CST
Nautical Twilight 5:58 AM CST 8:04 PM CST
Astronomical Twilight 5:31 AM CST 8:31 PM CST
Moon 9:40 AM CST (4/3) 11:14 PM CST (4/3)
Length of Visible Light 13h 12m
Length of Day
12h 26m
Waxing Crescent, 18% of the Moon is Illuminated
Apr 3
Waxing Crescent
Apr 7
First Quarter
Apr 15
Full
Apr 22
Last Quarter
Apr 29
New

Hourly Weather History & Observations

Time (CST) Temp. Windchill Dew Point Humidity Pressure Visibility Wind Dir Wind Speed Gust Speed Precip Events Conditions
5:58 AM 52 °F - 32 °F 34% 29.87 in 6 mi Calm Calm - -  
6:42 AM 44.6 °F 41.4 °F 30.2 °F 57% 30.17 in 10.0 mi South 5.8 mph - N/A   Partly Cloudy
7:40 AM 48.2 °F - 32.0 °F 54% 30.18 in 10.0 mi South 4.6 mph - N/A   Partly Cloudy
8:43 AM 59.0 °F - 28.4 °F 31% 29.82 in 12.0 mi South 8.1 mph - N/A   Partly Cloudy
8:58 AM 64 °F - 30 °F 17% 29.90 in 31 mi South 2.2 mph - -   Clear
9:40 AM 64.4 °F - 24.8 °F 22% 30.18 in 14.0 mi SE 10.4 mph - N/A   Partly Cloudy
10:45 AM 71.6 °F - 21.2 °F 15% 30.16 in 14.0 mi South 9.2 mph - N/A   Partly Cloudy
11:40 AM 78 °F - 35 °F 12% 29.83 in 19 mi WSW 11.2 mph - -   Scattered Clouds
11:43 AM 77.0 °F - 15.8 °F 10% 29.73 in 14.0 mi WSW 21.9 mph - N/A   Scattered Clouds
12:40 PM 78.8 °F - 15.8 °F 9% 30.12 in 14.0 mi SSW 29.9 mph - N/A   Mostly Cloudy
1:46 PM 80.6 °F - 15.8 °F 9% 30.10 in 14.0 mi SW 24.2 mph - N/A   Scattered Clouds
2:44 PM 80.6 °F - 14.0 °F 8% 29.70 in 14.0 mi SSW 26.5 mph - N/A   Scattered Clouds
2:45 PM 82 °F - 35 °F 10% 29.73 in 25 mi SW 11.2 mph - -   Scattered Clouds
3:48 PM 80.6 °F - 14.0 °F 8% 30.08 in 14.0 mi SSW 21.9 mph - N/A   Mostly Cloudy
4:47 PM 78.8 °F - 15.8 °F 9% 30.07 in 14.0 mi SSW 24.2 mph - N/A   Mostly Cloudy
5:43 PM 77.0 °F - 15.8 °F 10% 29.73 in 14.0 mi SSW 24.2 mph - N/A   Overcast
5:50 PM 76 °F - 34 °F 12% 29.65 in 19 mi WSW 6.7 mph - -   Clear
6:46 PM 73.4 °F - 15.8 °F 11% 30.11 in 14.0 mi SSW 17.3 mph - N/A   Mostly Cloudy
7:43 PM 68.0 °F - 19.4 °F 16% 30.15 in 12.0 mi SSW 12.7 mph - N/A   Mostly Cloudy
8:50 PM 67 °F - 33 °F 18% 29.70 in 6 mi WSW 4.5 mph - -   Clear
9:57 PM 59.0 °F - 24.8 °F 27% 30.21 in 10.0 mi SW 8.1 mph - N/A   Scattered Clouds
11:50 PM 60 °F - 35 °F 27% 29.79 in 6 mi WNW 2.2 mph - -